INTELSAT 19 (IS-19) (38356 NORAD) Tracking and Keplerian Element Data

This shows tracking and keplerian element data for the satellite.

Feedback or suggestion? Click here.




ElementValue
Catalog38356
NameINTELSAT 19 (IS-19)
Epoch Orbit4302
Epoch Day159.83035539
Epoch Year2024
RAAN5.0809
Inclination0.0157
Eccentricity0.0002715
Argument of Perigee72.2291
Mean Anonmoly284.3323
Mean Motion1.00270474
Decay Rate-5.7E-07
L11 38356U 12030A 24159.83035539 -.00000057 00000+0 00000+0 0 9999
L22 38356 0.0157 5.0809 0002715 72.2291 284.3323 1.00270474 43029



Live tracking and technical data element details for INTELSAT 19 (IS-19) (NORAD 38356). INTELSAT 19 (IS-19) can be tracked NOW for your location showing map with azimuth and elevation plus other details from your city location.







IsCatalogInMostPopularTable: catalog: 38356, numindb: 678
Update: records affected: 1



GetName: 38356 INTELSAT 19 (IS-19)

Hit Count: updated at: Fri, 14 Jun 2024 18:40:21 GMT